Regional Weather Roundup
Issued by NWS

Home | Current Version | Previous Version | Text Only | Print | Product List | Glossary Off
Versions: 1 2 3 4 5 6 7 8 9 10 11 12 13 14 15 16 17 18 19 20 21 22 23 24 25 26 27 28 29 30 31 32 33 34 35 36 37 38 39 40 41 42 43 44 45 46 47 48 49 50

000
ASUS43 KDMX 301908
RWRIA

WEATHER ROUNDUP FOR IOWA
NATIONAL WEATHER SERVICE DES MOINES IA
200 PM CDT MON MAY 30 2016

NOTE: "FAIR" INDICATES FEW OR NO CLOUDS BELOW 12,000 FEET WITH NO
SIGNIFICANT WEATHER AND/OR OBSTRUCTIONS TO VISIBILITY.

* - THESE STATIONS ARE NOT NWS STATIONS...THUS NOT UNDER NWS
QUALITY CONTROL.  THEY ALSO DO NOT REPORT WEATHER SUCH
AS PRECIPITATION OR FOG.

IAZ001>003-012>014-020>022-031>034-043>046-302000-
   NORTHWEST IOWA

CITY           SKY/WX    TMP DP  RH WIND       PRES   REMARKS
CARROLL *      SUNNY     86  55  35 S15G23    29.95F HX  84
CHEROKEE *     CLOUDY    81  59  47 S8        29.94F HX  81
DENISON *      SUNNY     84  54  34 S12G17    29.92F HX  83
LE MARS *      SUNNY     81  55  41 S13G20    29.92F HX  80
ORANGE CITY *  SUNNY     82  55  39 S9        29.93F HX  82
SHELDON *      SUNNY     79  57  47 S9        29.93F HX  80
SIOUX CITY     CLOUDY    84  57  39 S14       29.91F HX  83
SPENCER        MOSUNNY   81  58  45 S8        29.95F HX  81
STORM LAKE *     N/A     84  52  32 S14       29.95F HX  82
$$

IAZ055>058-069>071-079>083-090>094-302000-
   SOUTHWEST IOWA

CITY           SKY/WX    TMP DP  RH WIND       PRES   REMARKS
ATLANTIC *     SUNNY     84  61  45 SW16      29.95F HX  84
AUDUBON *        N/A     84  61  45 S13       29.97F HX  84
CLARINDA *       N/A     84  66  54 MISG      29.97F HX  86
COUNCIL BLFS * SUNNY     82  63  51 S6G13     29.95F HX  83
CRESTON *      SUNNY     84  63  48 S15G22    29.99F HX  85
HARLAN  *      SUNNY     84  57  39 S16G24    29.98F HX  83
LAMONI         MOSUNNY   83  65  54 S9        29.98F HX  85
RED OAK *      MOSUNNY   84  63  48 S7G17     29.95F HX  85
SHENANDOAH *   PTSUNNY   84  63  48 S9G21     29.96F HX  85
$$

IAZ047>049-059>061-072>074-084-302000-
   CENTRAL IOWA

CITY           SKY/WX    TMP DP  RH WIND       PRES   REMARKS
AMES           SUNNY     84  63  49 VRB6      29.96F HX  85
ANKENY *       SUNNY     86  61  42 S13G20    29.96F HX  86
BOONE *        SUNNY     82  63  51 S10       29.96F HX  83
CHARITON *     SUNNY     84  63  48 S10       29.98F HX  85
DES MOINES     PTSUNNY   85  61  44 S12       29.96F HX  85
GRINNELL*      SUNNY     82  63  51 S9        29.99F HX  83
KNOXVILLE *    MOSUNNY   84  61  45 S3        29.97F HX  84
MARSHALLTOWN   SUNNY     83  61  47 SE13      29.97F HX  83
NEWTON *       MOSUNNY   84  63  48 S13G20    29.97F HX  85
PELLA *        SUNNY     86  61  42 S8        29.99F HX  86
PERRY *          N/A     86  57  37 S12G20    29.95F HX  85
$$

IAZ004>006-015-016-023>025-035-036-302000-
   NORTH CENTRAL IOWA

CITY           SKY/WX    TMP DP  RH WIND       PRES   REMARKS
ALGONA *       SUNNY     81  57  44 SE10G20   29.98F HX  81
CLARION *      SUNNY     82  59  44 SE20      29.98F HX  82
ESTHERVILLE    SUNNY     78  59  51 SE15G22   29.97F
FORT DODGE *   SUNNY     82  61  47 S10G16    29.97F HX  83
MASON CITY     SUNNY     79  58  48 SE10      30.01F HX  80
FOREST CITY *  SUNNY     77  54  44 S9        29.99F
WEBSTER CITY * SUNNY     84  59  42 SE16G23   29.95F HX  84
IOWA FALLS *     N/A     82  59  44 SE12G21   29.99F HX  82
$$

IAZ007>011-017>019-026>030-037>042-050>054-066-302000-
   NORTHEAST IOWA

CITY           SKY/WX    TMP DP  RH WIND       PRES   REMARKS
CEDAR RAPIDS   SUNNY     81  60  48 SE9       29.99F HX  82
CHARLES CITY * SUNNY     81  54  39 SE9       30.01F HX  80
CLINTON *      SUNNY     82  55  39 CALM      30.01F HX  81
DECORAH *      SUNNY     79  48  34 SE5G15    30.01S
DUBUQUE        SUNNY     81  49  32 VRB5      30.02S HX  80
MONTICELLO *   SUNNY     81  55  41 S6        30.00S HX  80
OELWEIN *      SUNNY     77  57  50 SE8       30.02F
WATERLOO       SUNNY     80  58  46 SE8       29.99F HX  80
$$

IAZ064-065-067-068-078-302000-
   EAST CENTRAL IOWA

CITY           SKY/WX    TMP DP  RH WIND       PRES   REMARKS
DAVENPORT      SUNNY     82  57  42 VRB5      30.01F HX  82
IOWA CITY      SUNNY     82  60  47 SE8       30.01F HX  82
MT. PLEASANT * SUNNY     86  64  48 SE3       30.01F HX  87
MUSCATINE *    SUNNY     84  59  42 VRB3      30.00F HX  84
QUAD CITIES    SUNNY     85  57  38 CALM      30.00F HX  84
$$

IAZ062-063-075>077-085>089-095>099-302000-
   SOUTHEAST IOWA

CITY           SKY/WX    TMP DP  RH WIND       PRES   REMARKS
BURLINGTON     MOSUNNY   84  62  47 SE7       30.01F HX  85
FAIRFIELD *      N/A    N/A N/A N/A MISG        N/A
FORT MADISON * SUNNY     84  64  51 S5        30.02F HX  86
KEOKUK *       SUNNY     82  66  57 VRB3      30.01F HX  85
OSKALOOSA *      N/A     84  63  48 S7        29.99F HX  85
OTTUMWA        MOSUNNY   83  64  52 S8        29.99F HX  84
WASHINGTON *   SUNNY     82 -29   1 S9        30.01F
$$

ABBREVIATIONS USED IN REMARKS
   TC - TEMPERATURES IN CELSIUS
  WCI - WIND CHILL INDEX
   HX - HEAT INDEX
  VSB - VISIBILITY
$$





USA.gov is the U.S. government's official web portal to all federal, state and local government web resources and services.